STARLINK-4298 (53177 NORAD) Tracking and Keplerian Element Data

This shows tracking and keplerian element data for the satellite.

Feedback or suggestion? Click here.




ElementValue
Catalog53177
NameSTARLINK-4298
Epoch Orbit1193
Epoch Day270.25001157
Epoch Year2022
RAAN52.1891
Inclination53.2149
Eccentricity0.0004139
Argument of Perigee343.2872
Mean Anonmoly132.8165
Mean Motion15.73145141
Decay Rate0.00064862
L11 53177U 22083AX 22270.25001157 .00064862 00000+0 46392-3 0 9994
L22 53177 53.2149 52.1891 0004139 343.2872 132.8165 15.73145141 11933

Live tracking and technical data element details for STARLINK-4298 (NORAD 53177). STARLINK-4298 can be tracked NOW for your location showing map with azimuth and elevation plus other details from your city location.

Track the satellite on the map from your city or location and see movement details for azimuth, elevation, latitude, longitude, range, height, and movement on the map or in text.







IsCatalogInMostPopularTable: catalog: 53177, numindb: 7
Update: records affected: 1



GetName: 53177 STARLINK-4298

Hit Count: updated at: Thu, 29 Sep 2022 11:29:01 GMT